Home > Weather > Wichita Falls > Past weeks

Flag for USA Weather for the Past 2 Weeks in Wichita Falls, Texas, USA

Now
54 °F

Thundershowers. Mostly cloudy.


Feels Like: 50 °F
Forecast: 50 / 68 °F
Wind: 15 mph from North

Location: Wichita Falls - Sheppard Air Force Base

Current Time: May 1, 2016 at 10:39:11 PM

Latest Report: May 1, 2016 at 8:52 PM


Visibility: 10 mi

Pressure: 30.11 "Hg

Humidity: 86%

Dew Point: 50 °F

Location of Wichita FallsLocation

Historic Weather in Wichita Falls — Graph

°F

Wichita Falls Temperature Yesterday

Maximum temperature yesterday: 74 °F (at 4:52 PM)
Minimum temperature yesterday: 49 °F (at 6:52 AM)
Average temperature yesterday: 60 °F

High & Low Weather Summary for the Past Weeks

 TemperatureHumidityPressure
High89 °F (Apr 25, 4:52 PM)97% (Apr 17, 4:52 AM)30.20 "Hg (Apr 17, 4:52 AM)
Low48 °F (May 1, 6:52 AM)31% (Apr 22, 2:52 PM)29.43 "Hg (Apr 26, 5:52 PM)
Average65 °F74%29.87 "Hg
* Reported Apr 16 8:52 PM — May 1 8:52 PM, Wichita Falls, Weather by CustomWeather, © 2016

Note: Actual official high and low records may vary slightly from our data, if they occured in-between our weather recording intervals... More about our weather records

Advertising

Wichita Falls Weather History for the Previous 24 Hours

Scroll right to see more
 ConditionsComfort  
Time TempWeatherWind HumidityBarometerVisibility
8:52 PM
Sun, May 1
54 °FThundershowers. Mostly cloudy.15 mph86%30.11 "Hg10 mi
7:52 PM55 °FLight rain. More clouds than sun.13 mph87%30.09 "Hg10 mi
6:52 PM59 °FThundershowers. More clouds than sun.17 mph67%30.05 "Hg10 mi
5:52 PM63 °FOvercast.21 mph54%30.03 "Hg10 mi
4:52 PM67 °FBroken clouds.15 mph45%30.02 "Hg10 mi
3:52 PM68 °FScattered clouds.12 mph47%30.02 "Hg10 mi
2:52 PM68 °FPassing clouds.13 mph45%30.03 "Hg10 mi
1:52 PM66 °FPassing clouds.12 mph47%30.07 "Hg10 mi
12:52 PM64 °FSunny.12 mph47%30.07 "Hg10 mi
11:52 AM61 °FSunny.13 mph50%30.09 "Hg10 mi
10:52 AM59 °FSunny.20 mph49%30.07 "Hg10 mi
9:52 AM56 °FSunny.21 mph51%30.06 "Hg10 mi
8:52 AM53 °FSunny.20 mph56%30.07 "Hg10 mi
7:52 AM50 °FSunny.10 mph66%30.06 "Hg10 mi
6:52 AM48 °FClear.16 mph71%30.03 "Hg10 mi
5:52 AM50 °FClear.13 mph68%30.03 "Hg10 mi
4:52 AM52 °FClear.17 mph69%29.99 "Hg10 mi
3:52 AM52 °FClear.15 mph80%29.98 "Hg10 mi
2:52 AM51 °FClear.9 mph83%29.95 "Hg10 mi
1:52 AM54 °FClear.7 mph74%29.92 "Hg10 mi
12:52 AM55 °FClear.15 mph77%29.90 "Hg10 mi
11:52 PM
Sat, Apr 30
55 °FClear.8 mph83%29.92 "Hg10 mi
10:52 PM57 °FClear.9 mph78%29.91 "Hg10 mi
Weather by CustomWeather, © 2016

See weather overviewHow to use our weather pages